This demonstration page uses our WeatherBlox Daily Observations layout. Learn more.

Left ArrowRight Arrow

Hourly Observations for June 23, 2020

Temp ( °F °C ) Dew Point ( °F °C ) Humidity (%) Winds ( mph kmh ) Pressure ( in mb ) Visibility ( mi km ) Precip ( " mm )
12:53 am 00:53 Mostly Clear 71 21.7 68 20 90 90 SSW 3 6 29.97 1015 10 16 0.00 0.00
1:38 am 01:38 Mostly Cloudy 70 21.1 67 19.4 90 90 SW 3 6 29.96 1015 10 16 0.00 0.00
1:53 am 01:53 Cloudy 70 21.1 67 19.4 90 90 SSW 3 6 29.96 1014 10 16 0.00 0.00
2:53 am 02:53 Cloudy 71 21.7 68 20 90 90 SW 5 7 29.93 1014 10 16 0.00 0.00
3:53 am 03:53 Cloudy 71 21.7 68 20 90 90 VRB 5 7 29.91 1013 10 16 0.00 0.00
4:53 am 04:53 Cloudy 71 21.7 69 20.6 94 94 SW 6 9 29.91 1013 10 16 0.00 0.00
5:53 am 05:53 Cloudy 72 22.2 69 20.6 91 91 SSW 6 9 29.91 1013 10 16 0.00 0.00
6:53 am 06:53 Cloudy 72 22.2 69 20.6 91 91 SW 6 9 29.93 1014 10 16 0.00 0.00
7:37 am 07:37 Cloudy 72 22.2 69 20.6 91 91 SSW 7 11 29.92 1013 10 16 0.00 0.00
7:48 am 07:48 Cloudy 72 22 68 20 88 88 SSW 7 11 29.92 1013 10 16 0.00 0.00
7:53 am 07:53 Cloudy 72 22.2 68 20 87 87 SSW 8 13 29.93 1014 10 16 0.00 0.00
8:04 am 08:04 Cloudy 72 22.2 69 20.6 91 91 SSW 6 9 29.92 1013 10 16 0.00 0.00
8:53 am 08:53 Cloudy 73 22.8 68 20 84 84 SSW 7 11 29.92 1013 10 16 0.00 0.00
9:53 am 09:53 Mostly Cloudy 76 24.4 69 20.6 79 79 SSW 8 13 29.92 1013 10 16 0.00 0.00
10:19 am 10:19 Cloudy 76 24.4 68 20 77 77 SW 10 17 29.91 1013 10 16 0.00 0.00
10:53 am 10:53 Cloudy 77 25 68 20 74 74 SW 12 19 29.92 1013 10 16 0.00 0.00
11:29 am 11:29 Cloudy with Light Rain 78 25.6 68 20 71 71 SW 9 15 29.91 1013 10 16 0.00 0.00
11:53 am 11:53 Cloudy with Light Rain 77 25 70 21.1 79 79 SW 9 15 29.92 1013 10 16 0.01 0.25
9:53 pm 21:53 Mostly Clear 81 27 68 20 66 66 WSW 6 9 29.86 1011 10 16 0.00 0.00
10:53 pm 22:53 Clear 79 26 63 17 58 58 SW 6 9 29.88 1012 10 16 0.00 0.00
11:53 pm 23:53 Clear 75 24 64 18 69 69 SW 6 9 29.92 1013 10 16 0.00 0.00

Powered by AerisWeather